XSVQSIUF Weather Reports


time (UTC)temp
C
wind
direction
speed
KPH
gust
KPH
rain 1hr
cm
rain 24hr
cm
rain mn
cm
humidity
%
barometer
mb
20260901071520 19 208 0.0 0.0 0.00 0.38 0.25 98 1018.5
20260901070019 19 208 0.0 0.0 0.00 0.38 0.25 98 1018.5
20260901064504 19 208 0.0 0.0 0.10 0.38 0.25 98 1018.8
20260901063003 19 208 0.0 0.0 0.10 0.38 0.25 98 1018.9
20260901061559 19 208 0.0 0.0 0.13 0.38 0.25 98 1019.1
20260901060059 19 208 0.0 1.6 0.20 0.38 0.25 98 1019.0
20260901054554 19 208 0.0 0.0 0.10 0.28 0.15 98 1019.1
20260901053118 19 208 0.0 0.0 0.13 0.28 0.15 98 1019.2
20260901051604 19 208 0.0 0.0 0.13 0.25 0.13 98 1019.4
20260901050047 19 207 0.0 0.0 0.05 0.18 0.05 98 1019.5
20260901044554 19 207 0.0 0.0 0.05 0.18 0.05 98 1019.6
20260901043041 19 207 0.0 0.0 0.03 0.15 0.03 98 1019.5
20260901041536 19 207 0.0 0.0 0.00 0.13 0.00 98 1019.7
20260901040037 19 206 0.0 0.0 0.03 0.13 0.00 97 1019.9
20260901034532 19 206 0.0 0.0 0.03 0.13 0.13 97 1019.8
20260901033030 19 201 0.0 1.6 0.05 0.13 0.13 97 1020.0
20260901031532 19 210 0.0 1.6 0.05 0.13 0.13 97 1019.8
20260901030025 19 209 0.0 1.6 0.03 0.10 0.10 97 1020.0
20260901024522 19 207 0.0 0.0 0.03 0.15 0.10 97 1020.2
20260901023032 19 207 0.0 0.0 0.00 0.13 0.08 97 1020.3
20260901021523 19 207 0.0 0.0 0.00 0.13 0.08 97 1020.5
20260901020017 19 206 0.0 0.0 0.00 0.13 0.08 97 1020.4
20260901014514 18 206 0.0 0.0 0.00 0.25 0.08 97 1020.3
20260901013012 18 206 0.0 0.0 0.03 0.25 0.08 96 1020.4
20260901011520 19 206 0.0 0.0 0.03 0.25 0.08 96 1020.4
20260901010010 19 206 0.0 0.0 0.03 0.25 0.08 96 1020.4
20260901004507 19 206 0.0 0.0 0.03 0.25 0.08 96 1020.6
20260901003005 19 206 0.0 0.0 0.00 0.23 0.05 96 1020.5
20260901001504 19 206 0.0 0.0 0.00 0.23 0.05 96 1020.3
20260901000002 19 206 0.0 0.0 0.00 0.23 0.05 96 1020.2
20260831234600 19 206 0.0 0.0 0.00 0.23 0.05 95 1020.3
20260831233058 19 206 0.0 0.0 0.00 0.23 0.05 95 1020.2
20260831231557 19 206 0.0 0.0 0.00 0.23 0.05 95 1020.3
20260831230103 19 205 0.0 0.0 0.03 0.23 0.05 95 1020.7
20260831224552 20 205 0.0 0.0 0.03 0.23 0.05 94 1020.7
20260831223051 20 205 0.0 0.0 0.03 0.23 0.05 93 1020.9
20260831221557 20 205 0.0 0.0 0.03 0.23 0.05 92 1020.9
20260831220058 20 204 0.0 3.2 0.00 0.20 0.03 90 1020.9
20260831214543 21 205 0.0 0.0 0.00 0.20 0.03 91 1020.8
20260831213042 21 205 0.0 0.0 0.00 0.20 0.03 92 1020.6
20260831211541 21 205 0.0 0.0 0.00 0.20 0.03 91 1020.6
20260831210039 21 205 0.0 0.0 0.00 0.20 0.03 90 1020.6
20260831204543 21 205 0.0 0.0 0.03 0.20 0.03 90 1020.4
20260831203034 22 205 0.0 0.0 0.03 0.20 0.03 89 1020.5
20260831201533 22 205 0.0 0.0 0.03 0.20 0.03 86 1020.5
20260831200040 23 205 0.0 0.0 0.03 0.20 0.03 84 1020.7
20260831194531 23 205 0.0 1.6 0.00 0.18 0.00 80 1020.8
20260831193036 23 194 0.0 3.2 0.00 0.18 0.00 78 1021.1
20260831191528 23 219 0.0 1.6 0.00 0.18 0.00 81 1021.1
20260831190022 23 207 0.0 0.0 0.00 0.18 0.00 80 1021.4
20260831184522 23 207 0.0 1.6 0.00 0.18 0.00 80 1021.5
20260831183018 23 210 0.0 0.0 0.00 0.18 0.00 78 1021.6
20260831181520 23 222 0.0 3.2 0.00 0.18 0.00 80 1021.5
20260831180024 23 207 0.0 0.0 0.00 0.18 0.00 79 1021.8
20260831174521 23 207 0.0 1.6 0.00 0.18 0.00 77 1022.0
20260831173010 24 211 0.0 3.2 0.00 0.18 0.00 76 1022.2
20260831171507 24 205 0.0 0.0 0.00 0.18 0.00 73 1022.2
20260831170005 24 198 0.0 1.6 0.00 0.18 0.00 71 1022.1
20260831164506 25 203 0.0 1.6 0.00 0.18 0.00 71 1022.1
20260831163057 24 210 0.0 1.6 0.00 0.18 0.00 74 1022.1
20260831161555 23 204 0.0 1.6 0.00 0.18 0.00 76 1022.3
20260831160052 23 212 1.6 4.8 0.00 0.18 0.00 75 1022.5
20260831154552 24 210 0.0 4.8 0.00 0.18 0.00 74 1022.4
20260831153046 24 223 0.0 3.2 0.00 0.18 0.00 77 1022.7
20260831151550 23 191 0.0 6.4 0.00 0.18 0.00 78 1022.7
20260831150045 23 199 0.0 3.2 0.00 0.18 0.00 78 1022.5
20260831144536 23 217 0.0 6.4 0.00 0.18 0.00 82 1022.7
20260831143032 22 199 0.0 3.2 0.00 0.18 0.00 78 1022.7
20260831141525 22 205 0.0 3.2 0.00 0.18 0.00 83 1022.6
20260831140024 22 212 0.0 0.0 0.00 0.18 0.00 88 1022.5
20260831134518 21 207 0.0 0.0 0.00 0.18 0.00 93 1022.6
20260831133012 20 207 0.0 1.6 0.00 0.18 0.00 96 1022.7
20260831131508 19 207 0.0 1.6 0.00 0.18 0.00 98 1022.6
20260831130004 18 203 0.0 0.0 0.00 0.18 0.00 99 1022.7
20260831124503 18 204 0.0 0.0 0.00 0.18 0.00 99 1022.7
20260831123100 17 203 0.0 0.0 0.00 0.18 0.00 99 1022.9
20260831121558 17 203 0.0 0.0 0.00 0.18 0.00 98 1022.9
20260831120056 17 200 0.0 0.0 0.00 0.18 0.00 98 1022.7
20260831114552 17 200 0.0 0.0 0.00 0.18 0.00 98 1022.6
20260831113051 16 200 0.0 0.0 0.00 0.18 0.00 98 1022.4
20260831111602 16 200 0.0 0.0 0.00 0.18 0.00 98 1022.3
20260831110048 16 200 0.0 0.0 0.00 0.18 0.00 98 1022.0
20260831104553 16 200 0.0 0.0 0.00 0.18 0.00 98 1021.8
20260831103039 16 200 0.0 0.0 0.00 0.18 0.00 98 1021.7
20260831101536 16 200 0.0 0.0 0.00 0.18 0.00 98 1021.4
20260831100033 16 200 0.0 0.0 0.00 0.18 0.00 98 1021.5
20260831094532 16 200 0.0 0.0 0.00 0.18 0.00 98 1021.7
20260831093038 16 199 0.0 1.6 0.00 0.18 0.00 98 1021.7
20260831091526 16 200 0.0 0.0 0.00 0.18 0.00 98 1021.8
20260831090025 16 200 0.0 0.0 0.00 0.18 0.00 98 1021.8
20260831084522 16 200 0.0 0.0 0.00 0.18 0.00 98 1021.5
20260831083021 16 200 0.0 0.0 0.00 0.18 0.00 98 1021.2
20260831081517 16 200 0.0 0.0 0.00 0.18 0.00 97 1021.3
20260831080020 16 200 0.0 0.0 0.00 0.18 0.00 98 1021.6
20260831074511 16 200 0.0 0.0 0.00 0.18 0.00 98 1021.4
20260831073012 16 199 0.0 0.0 0.00 0.18 0.00 97 1021.1